Location: Unspecified
(0.0000°N, 0.0000°E)
Time: 20:06:54
(UTC+00:00)

COSMOS-2408 - Visible Passes

Search period start: 02 March 2024 00:00
Search period end: 12 March 2024 00:00
Orbit: 1471 x 1494 km, 82.5° (Epoch: 02 March)

Date Brightness Start Highest point End Pass type
(mag) Time Alt. Az. Time Alt. Az. Time Alt. Az.
07 Mar 9.4 21:01:41 10° S 21:01:51 11° S 21:01:51 11° S visible
09 Mar 9.2 21:13:16 10° S 21:14:32 15° S 21:14:32 15° S visible
10 Mar 8.9 20:21:18 10° SSE 20:23:09 18° SSE 20:23:09 18° SSE visible
11 Mar 9.0 19:31:16 10° SE 19:31:52 12° SE 19:31:52 12° SE visible
11 Mar 9.1 21:25:17 10° SSW 21:27:36 20° SSW 21:27:36 20° SSW visible
